[[{"header":{"parameterUnit":"m.s-1","parameterCategory":1,"la1":30.2991,"la2":30.254,"lo1":-89.0895,"lo2":-89.0444,"dy":0.0017,"dx":0.0017,"nx":28,"ny":28,"refTime":"2025-06-02T09:00:00:Z","depth":0,"parameterNumber":2,"parameterNumberName":"U-component_of_WINDS"},"data":[0,0,0,0,0,0,0,0,0,0,0,0,0,0,0,0,0,0,0,0,0,0,0,0,0,0,0,0,0,0,0,0,0,0,0,0,0,0,0,0,0,0,0,0,0,0,0,0,0,0,0,0,0,0,0,0,0,0,-5.6084,-5.6084,0,-5.6058,-5.6058,-5.6058,-5.5945,-5.5942,-5.594,-5.5937,-5.5912,-5.5913,-5.5915,0,0,0,0,0,0,0,0,0,0,0,0,0,-5.604,-5.6041,-5.6084,-5.6084,-5.6084,-5.6058,-5.6058,-5.6057,-5.5946,-5.5942,-5.5939,-5.5936,-5.5911,-5.5913,-5.5915,0,0,0,0,0,0,0,0,0,0,0,0,0,-5.6041,-5.6042,-5.6085,-5.6025,-5.6019,-5.6058,-5.6058,-5.6057,-5.5946,-5.5942,-5.5938,-5.5935,-5.591,-5.5913,-5.5915,-5.601,0,0,-5.5923,-5.5925,0,0,0,0,0,0,0,0,-5.6041,-5.6043,-5.6034,-5.6029,-5.6023,-5.6001,-5.6032,-5.6042,-5.5947,-5.5974,-5.5937,-5.5933,-5.5945,-5.5944,-5.5948,-5.6009,-5.6008,-5.5924,-5.5925,-5.5926,-5.5927,0,0,0,0,0,0,0,-5.6041,-5.6043,-5.6074,-5.6034,-5.6027,-5.6,-5.5996,-5.6034,-5.5982,-5.5971,-5.5963,-5.5962,-5.5941,-5.5946,-5.5946,-5.6007,-5.5924,-5.5926,-5.5928,-5.5929,-5.6146,-5.615,0,0,0,0,0,0,-5.6049,-5.6044,-5.6075,-5.6073,-5.6022,-5.6004,-5.5999,-5.6012,-5.5981,-5.5972,-5.5965,-5.5956,-5.5943,-5.5943,-5.5945,-5.6054,-5.5926,-5.5929,-5.593,-5.6142,-5.6147,-5.6151,0,0,0,0,0,0,-5.6049,-5.6053,-5.6076,-5.6056,-5.6057,-5.6009,-5.6024,-5.6013,-5.6018,-5.5976,-5.5966,-5.5979,-5.594,-5.5941,-5.5995,-5.6051,-5.593,-5.5932,-5.6137,-5.6143,-5.6149,-5.6273,0,0,0,0,0,0,-5.6048,-5.6054,-5.6088,-5.6058,-5.6059,-5.6126,-5.6027,-5.6016,-5.6023,-5.6011,-5.5987,-5.5979,-5.5937,-5.5992,-5.5998,-5.6053,-5.5934,-5.6132,-5.614,-5.6147,-5.6263,-5.6282,-5.6299,0,0,0,0,0,-5.6047,-5.6124,-5.6091,-5.6095,-5.6101,-5.6129,-5.613,-5.6079,-5.6028,-5.6063,-5.6036,-5.598,-5.6045,-5.5998,-5.6004,-5.6061,-5.6128,-5.6137,-5.6147,-5.6255,-5.6279,-5.6298,0,0,0,0,0,0,-5.6162,-5.6119,-5.6081,-5.6151,-5.6145,-5.611,-5.6152,-5.6106,-5.6114,-5.6103,-5.6041,-5.6036,-5.6099,-5.6085,-5.6034,-5.6151,-5.6077,-5.6088,-5.6158,-5.6179,-5.6197,-5.6198,-5.5937,0,0,0,0,0,-5.6196,-5.6222,-5.6183,-5.6249,-5.6247,-5.6201,-5.6211,-5.6174,-5.6164,-5.6161,-5.6138,-5.6132,-5.6151,-5.6164,-5.618,-5.6262,-5.6255,-5.6304,-5.6321,-5.6336,-5.6346,-5.6389,-5.641,-5.6183,-5.6182,-5.6182,0,0,-5.6266,-5.6245,-5.6265,-5.6271,-5.6262,-5.6291,-5.6199,-5.6234,-5.6255,-5.6166,-5.6215,-5.6199,-5.6188,-5.6256,-5.6285,-5.6247,-5.6408,-5.6348,-5.636,-5.6362,-5.6401,-5.6422,-5.6442,-5.6189,-5.6188,-5.6187,0,0,-5.6407,-5.6394,-5.6447,-5.644,-5.6427,-5.6396,-5.641,-5.6383,-5.6368,-5.6417,-5.6351,-5.6376,-5.641,-5.6405,-5.6407,-5.6549,-5.6498,-5.6556,-5.6648,-5.6691,-5.6709,-5.6724,-5.6775,-5.6794,-5.6567,-5.6567,-5.6567,0,-5.6495,-5.6535,-5.6481,-5.652,-5.6525,-5.6447,-5.6501,-5.6497,-5.649,-5.6495,-5.6452,-5.6494,-5.6481,-5.6547,-5.6582,-5.6587,-5.66,-5.6558,-5.6711,-5.6726,-5.6739,-5.6787,-5.6806,-5.6574,-5.6573,-5.6572,-5.6572,0,-5.6644,-5.6674,-5.6718,-5.6714,-5.6724,-5.677,-5.6724,-5.6741,-5.6703,-5.6677,-5.6728,-5.671,-5.6721,-5.6734,-5.6697,-5.6796,-5.6772,-5.6722,-5.6645,-5.6769,-5.6813,-5.683,-5.6584,-5.6582,-5.6579,-5.6578,0,0,-5.6855,-5.6821,-5.6839,-5.6836,-5.6817,-5.6839,-5.6883,-5.6893,-5.6909,-5.6908,-5.6943,-5.6975,-5.6927,-5.693,-5.6892,-5.693,-5.7044,-5.6874,-5.6873,-5.6906,-5.7152,-5.719,-5.7211,-5.7011,-5.7014,-5.7017,-5.7153,0,-5.6989,-5.7061,-5.7014,-5.7094,-5.7121,-5.7049,-5.7087,-5.708,-5.7058,-5.7078,-5.7053,-5.7076,-5.7013,-5.7014,-5.7048,-5.7023,-5.7092,-5.7013,-5.7043,-5.7044,-5.7046,-5.7234,-5.7274,-5.7403,-5.7169,-5.7172,-5.7174,0,-5.7155,-5.7161,-5.7243,-5.722,-5.723,-5.7265,-5.7271,-5.7291,-5.7283,-5.7264,-5.7268,-5.7222,-5.7264,-5.719,-5.7247,-5.7194,-5.7204,-5.7194,-5.7198,-5.7198,-5.7116,-5.7238,-5.7443,-5.7462,-5.7201,-5.7198,-5.7197,0,-5.73,-5.7329,-5.7382,-5.7382,-5.7357,-5.7383,-5.7374,-5.7362,-5.7371,-5.7378,-5.7383,-5.7395,-5.7401,-5.7411,-5.7369,-5.7319,-5.7432,-5.7355,-5.7418,-5.7419,-5.7443,-5.7442,-5.7651,-5.7452,-5.7452,-5.7452,-5.7451,0,-5.7454,-5.7507,-5.7447,-5.7479,-5.7537,-5.7484,-5.7543,-5.7526,-5.7517,-5.7545,-5.7484,-5.7512,-5.7456,-5.7479,-5.7446,-5.7499,-5.7502,-5.7488,-5.7479,-5.7493,-5.7495,-5.7498,-5.7487,-5.7457,-5.7455,-5.7454,-5.7454,0,-5.7624,-5.7586,-5.7639,-5.7612,-5.7606,-5.765,-5.7627,-5.7656,-5.7631,-5.7668,-5.7673,-5.7634,-5.7657,-5.7617,-5.7636,-5.7615,-5.7688,-5.7665,-5.769,-5.7683,-5.7748,-5.7742,-5.7965,-5.7992,-5.7777,-5.7779,-5.7781,0,-5.7724,-5.7763,-5.7741,-5.7755,-5.775,-5.7774,-5.7784,-5.7735,-5.7748,-5.7742,-5.7773,-5.7791,-5.7803,-5.7845,-5.7818,-5.7833,-5.781,-5.7887,-5.7811,-5.7825,-5.781,-5.7808,-5.7811,-5.7902,-5.7905,-5.7907,-5.7908,0,-5.7906,-5.7885,-5.7902,-5.7913,-5.7926,-5.7932,-5.7934,-5.795,-5.7897,-5.7915,-5.7939,-5.7949,-5.7969,-5.7988,-5.7997,-5.7987,-5.794,-5.7933,-5.7948,-5.7962,-5.7975,-5.7968,-5.7732,-5.7927,-5.7925,-5.7924,-5.7923,-5.7922,-5.8043,-5.8075,-5.8064,-5.8085,-5.8081,-5.8085,-5.8111,-5.809,-5.8109,-5.8121,-5.8091,-5.8122,-5.8114,-5.812,-5.8117,-5.8141,-5.8107,-5.8129,-5.8134,-5.814,-5.815,-5.7973,-5.8143,-5.8142,-5.8141,-5.8141,-5.8141,0,-5.8221,-5.8211,-5.8231,-5.8235,-5.8252,-5.8206,-5.8206,-5.8223,-5.8252,-5.8248,-5.8262,-5.829,-5.831,-5.8285,-5.83,-5.8324,-5.8303,-5.833,-5.8327,-5.8326,-5.818,-5.8165,-5.8347,-5.8347,-5.8347,-5.8347,-5.8347,-5.8347,-5.8315,-5.8366,-5.8345,-5.8395,-5.8385,-5.8415,-5.8419,-5.8422,-5.8419,-5.8453,-5.8469,-5.8453,-5.8442,-5.8456,-5.8472,-5.8464,-5.8472,-5.8507,-5.8492,-5.8356,-5.8336,-5.8317,-5.8302,-5.851,-5.851,-5.8635,-5.8636,-5.8637]},{"header":{"parameterUnit":"m.s-1","parameterCategory":1,"la1":30.2991,"la2":30.254,"lo1":-89.0895,"lo2":-89.0444,"dy":0.0017,"dx":0.0017,"nx":28,"ny":28,"refTime":"2025-06-02T09:00:00:Z","depth":0,"parameterNumber":3,"parameterNumberName":"V-component_of_WINDS"},"data":[0,0,0,0,0,0,0,0,0,0,0,0,0,0,0,0,0,0,0,0,0,0,0,0,0,0,0,0,0,0,0,0,0,0,0,0,0,0,0,0,0,0,0,0,0,0,0,0,0,0,0,0,0,0,0,0,0,0,0.1442,0.1441,0,0.1356,0.1355,0.1354,0.1317,0.1318,0.1318,0.1318,0.1229,0.1227,0.1224,0,0,0,0,0,0,0,0,0,0,0,0,0,0.1575,0.1573,0.1442,0.1441,0.144,0.1356,0.1355,0.1354,0.1317,0.1318,0.1318,0.1318,0.123,0.1227,0.1224,0,0,0,0,0,0,0,0,0,0,0,0,0,0.1506,0.1572,0.1442,0.1412,0.1408,0.1357,0.1355,0.1354,0.1317,0.1318,0.1318,0.1318,0.1231,0.1227,0.1224,0.1196,0,0,0.1212,0.121,0,0,0,0,0,0,0,0,0.151,0.1501,0.1417,0.1414,0.141,0.1348,0.1369,0.1301,0.1317,0.1352,0.1318,0.1318,0.1268,0.1262,0.1245,0.1192,0.1188,0.1212,0.1209,0.1208,0.1207,0,0,0,0,0,0,0,0.1515,0.1505,0.1408,0.1416,0.1411,0.1402,0.1393,0.1356,0.131,0.1349,0.1346,0.1336,0.1266,0.1249,0.1243,0.1187,0.1212,0.1208,0.1206,0.1205,0.1108,0.1108,0,0,0,0,0,0,0.1525,0.1509,0.1411,0.1406,0.1461,0.14,0.1389,0.1367,0.131,0.1302,0.1336,0.1335,0.1255,0.1247,0.1239,0.1204,0.1208,0.1204,0.1202,0.1108,0.1108,0.1108,0,0,0,0,0,0,0.1528,0.1516,0.1414,0.1456,0.1443,0.1397,0.1373,0.1366,0.1348,0.1301,0.1292,0.1327,0.1255,0.1245,0.1207,0.12,0.1203,0.1199,0.1109,0.1108,0.1108,0.1132,0,0,0,0,0,0,0.1532,0.1518,0.1506,0.1456,0.1441,0.1384,0.1373,0.1364,0.1342,0.1339,0.1289,0.1281,0.1254,0.1213,0.1204,0.1195,0.1196,0.1109,0.1109,0.1108,0.1132,0.1132,0.1133,0,0,0,0,0,0.1536,0.1516,0.1506,0.1494,0.1426,0.1383,0.1374,0.1344,0.1341,0.133,0.13,0.1283,0.1203,0.121,0.1199,0.1189,0.1109,0.1109,0.1108,0.1131,0.1132,0.1133,0,0,0,0,0,0,0.1565,0.1509,0.1497,0.146,0.1427,0.1377,0.1361,0.1345,0.1312,0.1311,0.1274,0.1263,0.123,0.1205,0.1214,0.116,0.1155,0.1152,0.1176,0.1177,0.1178,0.1184,0.1193,0,0,0,0,0,0.1567,0.1538,0.149,0.1462,0.1446,0.1407,0.1387,0.1367,0.1331,0.1316,0.1284,0.1249,0.1217,0.1196,0.1163,0.1129,0.1118,0.1117,0.1117,0.1118,0.1116,0.1097,0.1096,0.1105,0.1105,0.1105,0,0,0.1571,0.1536,0.152,0.1467,0.1439,0.1409,0.1395,0.1364,0.1342,0.1312,0.1274,0.125,0.1209,0.1174,0.1156,0.1153,0.1111,0.1117,0.1118,0.1115,0.1096,0.1095,0.1094,0.1105,0.1105,0.1105,0,0,0.1562,0.1533,0.1507,0.148,0.1438,0.1412,0.1407,0.136,0.1342,0.1305,0.1282,0.1255,0.1199,0.1172,0.115,0.1135,0.1118,0.1125,0.1128,0.111,0.111,0.1109,0.1103,0.1102,0.1123,0.1123,0.1123,0,0.1571,0.1526,0.1495,0.1466,0.1443,0.1416,0.139,0.1365,0.1314,0.13,0.1297,0.1227,0.1198,0.1156,0.1152,0.1136,0.1128,0.113,0.1112,0.1111,0.111,0.1104,0.1102,0.1124,0.1124,0.1124,0.1124,0,0.154,0.1509,0.1493,0.1446,0.1422,0.1394,0.1359,0.1339,0.1322,0.1297,0.126,0.1224,0.1184,0.1173,0.1155,0.1129,0.1128,0.1119,0.1113,0.1111,0.1105,0.1102,0.1126,0.1125,0.1125,0.1125,0,0,0.1544,0.1482,0.1477,0.1456,0.1409,0.1385,0.1356,0.1318,0.1301,0.1268,0.1244,0.1198,0.119,0.1166,0.1146,0.113,0.112,0.1123,0.1121,0.1123,0.109,0.1097,0.1094,0.111,0.1109,0.1109,0.1093,0,0.1529,0.1476,0.1449,0.1409,0.138,0.1356,0.1331,0.13,0.1277,0.125,0.1224,0.1192,0.1184,0.117,0.1153,0.1125,0.1113,0.1126,0.1086,0.1085,0.1096,0.1091,0.1097,0.1084,0.1091,0.109,0.109,0,0.1503,0.1471,0.1428,0.1386,0.1373,0.1352,0.1315,0.129,0.1255,0.1239,0.1213,0.1193,0.1163,0.1161,0.112,0.1129,0.1112,0.1096,0.1095,0.1089,0.1087,0.1085,0.1079,0.1077,0.1086,0.1086,0.1087,0,0.151,0.1457,0.1424,0.1407,0.1358,0.1343,0.1322,0.1287,0.1267,0.1235,0.1222,0.1187,0.1168,0.1142,0.1113,0.1114,0.1075,0.107,0.1061,0.1061,0.1052,0.1053,0.1043,0.1043,0.1043,0.1043,0.1043,0,0.1495,0.1469,0.1427,0.1407,0.1378,0.1348,0.1321,0.1298,0.1268,0.1243,0.122,0.1197,0.1162,0.1135,0.1113,0.1082,0.1074,0.106,0.1054,0.1062,0.1063,0.1049,0.1049,0.1042,0.1042,0.1042,0.1042,0,0.1497,0.1468,0.1431,0.1388,0.1377,0.1358,0.1321,0.1301,0.1278,0.1247,0.1238,0.1201,0.1169,0.1139,0.1095,0.108,0.1049,0.1042,0.1061,0.1058,0.105,0.1051,0.103,0.1026,0.1029,0.1029,0.1029,0,0.1488,0.1469,0.1424,0.1407,0.1386,0.1358,0.1337,0.1307,0.1287,0.1247,0.1232,0.1198,0.1169,0.1119,0.1088,0.1055,0.1047,0.1042,0.1041,0.105,0.1046,0.1048,0.1046,0.1042,0.1042,0.1042,0.1042,0,0.1477,0.1464,0.1435,0.1402,0.1378,0.135,0.1321,0.1308,0.1274,0.1252,0.1219,0.1197,0.1154,0.112,0.1084,0.1063,0.1047,0.1043,0.1039,0.1046,0.1057,0.1051,0.1062,0.1043,0.1043,0.1043,0.1043,0.1043,0.1473,0.1454,0.1421,0.139,0.1366,0.134,0.132,0.1295,0.1267,0.123,0.1214,0.1181,0.1149,0.1099,0.1078,0.1052,0.1048,0.1042,0.1041,0.1039,0.1041,0.1063,0.1045,0.1045,0.1045,0.1045,0.1045,0,0.1459,0.1437,0.1409,0.1371,0.1347,0.1336,0.1304,0.1285,0.1256,0.1227,0.12,0.1163,0.1132,0.11,0.1067,0.1052,0.1044,0.1044,0.1044,0.104,0.1046,0.1053,0.1051,0.1051,0.1051,0.1051,0.1051,0.1051,0.1449,0.1418,0.1402,0.1359,0.1337,0.1305,0.1288,0.1264,0.1241,0.1201,0.1175,0.1155,0.1125,0.109,0.1061,0.1053,0.1041,0.1044,0.1033,0.1039,0.1039,0.1039,0.1045,0.1042,0.1042,0.1029,0.1029,0.1029]}]]